[[{"header":{"parameterUnit":"m.s-1","parameterCategory":1,"la1":30.2991,"la2":30.254,"lo1":-89.0895,"lo2":-89.0444,"dy":0.0017,"dx":0.0017,"nx":28,"ny":28,"refTime":"2024-05-11T03:00:00:Z","depth":0,"parameterNumber":2,"parameterNumberName":"U-component_of_WINDS"},"data":[0,0,0,0,0,0,0,0,0,0,0,0,0,0,0,0,0,0,0,0,0,0,0,0,0,0,0,0,0,0,0,0,0,0,0,0,0,0,0,0,0,0,0,0,0,0,0,0,0,0,0,0,0,0,0,0,0,0,0.4346,0.4348,0,0.4475,0.4476,0.4478,0.4546,0.4547,0.4547,0.4547,0.4683,0.4686,0.469,0,0,0,0,0,0,0,0,0,0,0,0,0,0.4163,0.4166,0.4346,0.4348,0.4349,0.4475,0.4477,0.4478,0.4546,0.4547,0.4547,0.4547,0.4682,0.4686,0.469,0,0,0,0,0,0,0,0,0,0,0,0,0,0.4262,0.4167,0.4346,0.4398,0.4404,0.4474,0.4477,0.4479,0.4546,0.4547,0.4547,0.4547,0.468,0.4685,0.4691,0.472,0,0,0.4707,0.4709,0,0,0,0,0,0,0,0,0.4257,0.4269,0.4389,0.4395,0.4402,0.4495,0.4462,0.456,0.4546,0.4493,0.4547,0.4547,0.462,0.4631,0.4654,0.4726,0.4732,0.4707,0.471,0.4713,0.4714,0,0,0,0,0,0,0,0.425,0.4264,0.4397,0.4391,0.4398,0.4417,0.4431,0.4481,0.4554,0.4497,0.4503,0.4517,0.4624,0.4649,0.4658,0.4734,0.4707,0.4712,0.4715,0.4717,0.4836,0.4836,0,0,0,0,0,0,0.4234,0.4258,0.4393,0.4401,0.4328,0.442,0.4436,0.4465,0.4554,0.4567,0.4516,0.4519,0.464,0.4652,0.4663,0.4703,0.4712,0.4717,0.472,0.4836,0.4836,0.4836,0,0,0,0,0,0,0.423,0.4245,0.4388,0.4331,0.435,0.4423,0.4455,0.4467,0.4493,0.4568,0.4582,0.4528,0.4641,0.4656,0.4705,0.4708,0.472,0.4725,0.4836,0.4836,0.4836,0.4782,0,0,0,0,0,0,0.4224,0.4243,0.4254,0.4331,0.4353,0.4426,0.4455,0.447,0.4501,0.4506,0.4583,0.4596,0.4642,0.4696,0.471,0.4716,0.4729,0.4836,0.4836,0.4836,0.4784,0.478,0.4777,0,0,0,0,0,0.4217,0.4235,0.4254,0.427,0.4368,0.4426,0.4439,0.449,0.4501,0.4513,0.4561,0.4594,0.4706,0.4701,0.4717,0.4724,0.4836,0.4836,0.4836,0.4785,0.4781,0.4777,0,0,0,0,0,0,0.4159,0.4246,0.4268,0.4311,0.436,0.4437,0.4454,0.4484,0.4533,0.4536,0.4599,0.4616,0.4659,0.4697,0.469,0.4757,0.4774,0.4777,0.473,0.4727,0.4723,0.4713,0.4733,0,0,0,0,0,0.415,0.4189,0.4264,0.4294,0.4317,0.4381,0.4409,0.4444,0.4498,0.452,0.4572,0.4624,0.4672,0.4702,0.4749,0.479,0.4808,0.4803,0.4799,0.4796,0.4798,0.4822,0.4821,0.4836,0.4836,0.4836,0,0,0.4134,0.4186,0.4207,0.4283,0.4326,0.4365,0.4398,0.4439,0.4469,0.4527,0.4575,0.4615,0.4678,0.4723,0.4745,0.4756,0.4798,0.4796,0.4793,0.4797,0.4822,0.4821,0.4819,0.4836,0.4836,0.4836,0,0,0.4124,0.4168,0.4197,0.4239,0.4302,0.4345,0.4352,0.4424,0.4453,0.4502,0.4546,0.4584,0.4664,0.4706,0.4739,0.4745,0.4776,0.4759,0.4741,0.4764,0.4763,0.4762,0.4764,0.4764,0.4761,0.4761,0.4761,0,0.4096,0.4156,0.4209,0.4247,0.4279,0.4332,0.4363,0.4401,0.4477,0.4499,0.4509,0.461,0.4657,0.4712,0.4713,0.4738,0.4748,0.475,0.4759,0.4758,0.4759,0.4761,0.4762,0.4758,0.4758,0.4759,0.4759,0,0.4119,0.416,0.4176,0.4247,0.4281,0.4315,0.4375,0.4404,0.4436,0.4477,0.4528,0.4585,0.4645,0.4661,0.4693,0.4721,0.4725,0.4746,0.4765,0.4754,0.4757,0.4759,0.4754,0.4755,0.4756,0.4757,0,0,0.4075,0.4174,0.4179,0.4212,0.4285,0.4319,0.4356,0.4413,0.4436,0.4487,0.452,0.4587,0.4606,0.4643,0.4681,0.4701,0.4702,0.472,0.4723,0.4714,0.4736,0.4719,0.4719,0.4723,0.4724,0.4724,0.473,0,0.4076,0.4143,0.4191,0.424,0.4279,0.4329,0.4362,0.4411,0.4451,0.449,0.4536,0.4581,0.4604,0.4626,0.4648,0.4697,0.4707,0.4697,0.4755,0.4757,0.4737,0.4721,0.4703,0.4706,0.4732,0.4732,0.4732,0,0.4085,0.4132,0.4184,0.4253,0.4272,0.4299,0.4356,0.4393,0.445,0.4478,0.4518,0.4557,0.4599,0.4614,0.4674,0.4666,0.4693,0.472,0.4722,0.4729,0.4743,0.4727,0.4708,0.4708,0.4735,0.4735,0.4735,0,0.4047,0.4124,0.4165,0.4192,0.4274,0.4292,0.4327,0.4385,0.4416,0.4466,0.4487,0.4541,0.4571,0.4613,0.4666,0.4672,0.472,0.4739,0.4745,0.4743,0.4752,0.4751,0.4737,0.477,0.477,0.477,0.477,0,0.4042,0.4072,0.4149,0.4174,0.421,0.4266,0.43,0.434,0.439,0.4425,0.4473,0.4504,0.4573,0.4613,0.4655,0.4698,0.4711,0.4735,0.4746,0.4731,0.4727,0.4749,0.475,0.477,0.477,0.477,0.477,0,0.4005,0.4059,0.4107,0.418,0.4199,0.4222,0.4285,0.4312,0.4354,0.4398,0.4411,0.4478,0.4528,0.4585,0.4654,0.4683,0.4722,0.4738,0.4702,0.4708,0.471,0.4709,0.4709,0.4712,0.4743,0.4743,0.4742,0,0.3998,0.4022,0.4098,0.4123,0.4157,0.4198,0.423,0.4287,0.4318,0.4385,0.4404,0.4457,0.4503,0.4581,0.4636,0.469,0.4707,0.4703,0.4715,0.4699,0.4706,0.4704,0.4707,0.47,0.4699,0.4698,0.4698,0,0.398,0.4005,0.4048,0.41,0.4136,0.418,0.4227,0.4246,0.4312,0.4345,0.4396,0.4431,0.4501,0.4554,0.4614,0.4652,0.4686,0.4694,0.4698,0.4682,0.466,0.4671,0.4692,0.4694,0.4694,0.4694,0.4695,0.4695,0.3958,0.3981,0.4037,0.4084,0.4124,0.4166,0.4195,0.4241,0.4283,0.4344,0.4376,0.4426,0.4483,0.4567,0.4604,0.4645,0.4657,0.4662,0.4664,0.4664,0.466,0.4654,0.4656,0.4657,0.4657,0.4657,0.4657,0,0.3941,0.398,0.4022,0.4084,0.4121,0.4149,0.4202,0.4231,0.4274,0.4324,0.4367,0.4426,0.4477,0.4536,0.4591,0.4613,0.463,0.4625,0.4624,0.4632,0.4647,0.4637,0.461,0.461,0.461,0.461,0.461,0.461,0.3937,0.3977,0.4009,0.4071,0.411,0.4158,0.4186,0.4225,0.4265,0.4328,0.437,0.4408,0.4462,0.4522,0.457,0.4586,0.4604,0.4595,0.4615,0.4627,0.4631,0.4635,0.4627,0.4598,0.4598,0.4598,0.4598,0.4598]},{"header":{"parameterUnit":"m.s-1","parameterCategory":1,"la1":30.2991,"la2":30.254,"lo1":-89.0895,"lo2":-89.0444,"dy":0.0017,"dx":0.0017,"nx":28,"ny":28,"refTime":"2024-05-11T03:00:00:Z","depth":0,"parameterNumber":3,"parameterNumberName":"V-component_of_WINDS"},"data":[0,0,0,0,0,0,0,0,0,0,0,0,0,0,0,0,0,0,0,0,0,0,0,0,0,0,0,0,0,0,0,0,0,0,0,0,0,0,0,0,0,0,0,0,0,0,0,0,0,0,0,0,0,0,0,0,0,0,0.7418,0.7416,0,0.7314,0.7313,0.7311,0.7228,0.7227,0.7226,0.7225,0.7117,0.7115,0.7113,0,0,0,0,0,0,0,0,0,0,0,0,0,0.754,0.7538,0.7418,0.7416,0.7415,0.7314,0.7313,0.7311,0.7228,0.7227,0.7226,0.7225,0.7118,0.7115,0.7113,0,0,0,0,0,0,0,0,0,0,0,0,0,0.7467,0.7538,0.7418,0.7361,0.7355,0.7314,0.7313,0.7311,0.7228,0.7227,0.7226,0.7224,0.7119,0.7116,0.7113,0.7119,0,0,0.7103,0.7102,0,0,0,0,0,0,0,0,0.7471,0.7462,0.7371,0.7365,0.7358,0.7282,0.7316,0.7246,0.7229,0.7276,0.7225,0.7224,0.7173,0.7165,0.7149,0.7114,0.7109,0.7103,0.7101,0.71,0.7099,0,0,0,0,0,0,0,0.7476,0.7466,0.7376,0.737,0.7362,0.734,0.7328,0.7302,0.7233,0.7272,0.7266,0.7255,0.7169,0.7152,0.7146,0.7107,0.7103,0.71,0.7098,0.7097,0.7067,0.7068,0,0,0,0,0,0,0.7491,0.7471,0.738,0.7373,0.7413,0.7339,0.7326,0.7308,0.7233,0.7221,0.7256,0.7251,0.7158,0.7149,0.7141,0.714,0.71,0.7097,0.7095,0.7066,0.7068,0.7069,0,0,0,0,0,0,0.7493,0.7483,0.7384,0.742,0.7406,0.7338,0.7319,0.7307,0.7289,0.7221,0.7208,0.7251,0.7157,0.7146,0.7124,0.7135,0.7095,0.7092,0.7065,0.7067,0.7068,0.714,0,0,0,0,0,0,0.7497,0.7485,0.7487,0.7421,0.7405,0.737,0.732,0.7306,0.7284,0.7277,0.7213,0.7201,0.7155,0.7129,0.7121,0.713,0.709,0.7064,0.7066,0.7068,0.7136,0.7144,0.715,0,0,0,0,0,0.7502,0.7512,0.7488,0.7477,0.7407,0.7371,0.7361,0.7308,0.7286,0.7286,0.7242,0.7203,0.7136,0.7128,0.7118,0.7126,0.7063,0.7065,0.7068,0.7133,0.7142,0.715,0,0,0,0,0,0,0.7581,0.7503,0.7475,0.7464,0.7425,0.7357,0.7356,0.732,0.7286,0.7281,0.7216,0.7202,0.7186,0.7154,0.7147,0.7126,0.7094,0.7095,0.7147,0.7155,0.7162,0.7169,0.7087,0,0,0,0,0,0.7598,0.7576,0.7508,0.7505,0.7487,0.7425,0.7408,0.737,0.7326,0.7309,0.7263,0.7222,0.719,0.7172,0.714,0.7132,0.7115,0.7133,0.714,0.7146,0.7146,0.7136,0.7142,0.7077,0.7077,0.7077,0,0,0.7631,0.7585,0.7576,0.752,0.7485,0.7462,0.7412,0.7391,0.7372,0.7306,0.7281,0.7247,0.7195,0.718,0.717,0.7152,0.716,0.7149,0.7154,0.7151,0.7139,0.7145,0.715,0.7079,0.7078,0.7078,0,0,0.7679,0.7644,0.7636,0.7602,0.7549,0.7508,0.7506,0.7443,0.7417,0.7392,0.734,0.7317,0.7267,0.7231,0.7206,0.7239,0.72,0.7231,0.7266,0.7257,0.7262,0.7266,0.7274,0.7278,0.7232,0.7232,0.7232,0,0.7727,0.7691,0.7636,0.7617,0.7592,0.7532,0.7521,0.7491,0.743,0.7414,0.7395,0.7328,0.729,0.7262,0.727,0.7254,0.7247,0.7236,0.7266,0.7269,0.7272,0.7279,0.7283,0.7236,0.7235,0.7235,0.7234,0,0.7751,0.7727,0.7726,0.7669,0.7645,0.7631,0.7571,0.7553,0.7518,0.7478,0.7451,0.7403,0.7358,0.735,0.7316,0.7317,0.7307,0.7278,0.7244,0.7283,0.7288,0.7291,0.7241,0.724,0.7239,0.7238,0,0,0.7845,0.7757,0.7757,0.7729,0.7666,0.7645,0.7627,0.7584,0.7568,0.7529,0.7509,0.7467,0.7439,0.7411,0.7372,0.7364,0.7388,0.7335,0.7333,0.7344,0.7382,0.7403,0.7407,0.7363,0.7363,0.7364,0.7386,0,0.7881,0.7845,0.7794,0.7774,0.7749,0.7691,0.7674,0.7633,0.7595,0.7567,0.7525,0.7494,0.7461,0.7443,0.7433,0.7388,0.7394,0.7386,0.7342,0.7341,0.7354,0.741,0.7432,0.7455,0.7388,0.7388,0.7388,0,0.7917,0.788,0.7858,0.7794,0.7782,0.7768,0.7722,0.7698,0.7649,0.7621,0.7589,0.7547,0.7522,0.7493,0.7456,0.7451,0.7431,0.7405,0.7405,0.7396,0.7365,0.74,0.7461,0.7464,0.7392,0.7391,0.7391,0,0.7984,0.7929,0.7907,0.7885,0.7811,0.7802,0.7771,0.7721,0.7697,0.7657,0.764,0.7599,0.7575,0.7542,0.7488,0.7473,0.7456,0.7424,0.743,0.7431,0.7427,0.7428,0.7483,0.7419,0.7419,0.7419,0.7419,0,0.8027,0.8015,0.7935,0.7922,0.7906,0.7847,0.7832,0.7795,0.7751,0.7727,0.7675,0.7654,0.7585,0.7556,0.7514,0.7488,0.7478,0.7453,0.7442,0.7456,0.7459,0.744,0.7436,0.742,0.742,0.742,0.742,0,0.8097,0.8044,0.8017,0.7949,0.7931,0.7922,0.7863,0.7846,0.7805,0.7776,0.7766,0.7701,0.7663,0.7607,0.7553,0.7524,0.7503,0.7487,0.752,0.7512,0.7521,0.752,0.7563,0.7564,0.7504,0.7504,0.7505,0,0.8127,0.8116,0.8046,0.8027,0.7998,0.7968,0.7943,0.7884,0.786,0.7802,0.7792,0.775,0.7713,0.7656,0.7602,0.7559,0.7539,0.7557,0.7532,0.7546,0.7535,0.7535,0.7532,0.7562,0.7563,0.7564,0.7565,0,0.8183,0.8157,0.8124,0.8081,0.8053,0.8016,0.7976,0.7963,0.7895,0.7871,0.7832,0.7803,0.7747,0.7705,0.7654,0.762,0.758,0.7573,0.7572,0.7585,0.7604,0.7591,0.7533,0.7572,0.7571,0.7571,0.757,0.757,0.8231,0.8218,0.8166,0.813,0.8094,0.8058,0.8038,0.7995,0.7961,0.7911,0.7878,0.784,0.7788,0.7716,0.7684,0.7652,0.7635,0.7634,0.7633,0.7633,0.7637,0.7612,0.7643,0.7642,0.7642,0.7642,0.7642,0,0.8282,0.8246,0.8214,0.8159,0.813,0.8097,0.8051,0.8028,0.7995,0.7951,0.7916,0.7869,0.7828,0.7771,0.7725,0.771,0.769,0.7699,0.7698,0.769,0.7656,0.766,0.7716,0.7716,0.7716,0.7716,0.7716,0.7716,0.8305,0.8279,0.8247,0.8202,0.8165,0.8127,0.8103,0.8069,0.8033,0.7983,0.7949,0.7913,0.7862,0.7812,0.7771,0.7755,0.7739,0.7754,0.7732,0.77,0.7693,0.7687,0.769,0.7752,0.7752,0.7769,0.7769,0.7769]}]]